170P/Christensen (2023)

Japanese version
Home page
Updated on August 17, 2023

---------------------------------------------------------------------

* Profile

* Pictures

* Orbital Elements

Epoch 2023 Apr. 6.0 TT = JDT 2460040.5                                          
T 2023 Apr. 20.05038 TT                                 Rudenko                 
q   2.9240049            (2000.0)            P               Q                  
n   0.11409587     Peri.  225.42928     +0.98275018     -0.15158131             
a   4.2100711      Node   142.90794     +0.17470709     +0.94883912             
e   0.3054738      Incl.   10.11793     -0.06065899     +0.27699715             
P   8.64                                                                        
From 279 observations 2005 June 17-2021 July 13, mean residual 1".8.            

* Magnitudes Graph

        m1 = 6.0 + 5 log d + 20.0 log r(t - 30)

---------------------------------------------------------------------

The orbital elements are published on M.P.E.C. 2021-O56.
The magnitudes graphs are made with Comet for Windows.

---------------------------------------------------------------------

Copyright(C) Seiichi Yoshida (comet@aerith.net). All rights reserved.